Location: Adrasan
(36.3319°N, 30.4314°E)
Time: 12:57:42
(UTC+00:00)

Cosmos 2026 Rocket - Pass Details

Date: 09 December 2023
Orbit: 938 x 1001 km, 82.9° (Epoch: 20 February)

Event Time Altitude Azimuth Distance (km) Brightness Sun altitude
Rises 15:39:59 0° 187° (S) 3,650 7.4 -11.3°
Reaches altitude 10° 15:42:28 10° 188° (S) 2,715 6.7 -11.8°
Maximum altitude 15:48:43 82° 276° (W) 1,000 4.1 -12.9°
Drops below altitude 10° 15:55:06 10° 5° (N) 2,769 6.2 -14.2°
Sets 15:57:39 0° 6° (N) 3,726 6.8 -14.6°
